Location: Reutlingen
(48.4923°N, 9.2131°E)
Time: 21:38:00
(UTC+01:00)

ISS - Visible Passes

Search period start: 09 February 2026 00:00
Search period end: 19 February 2026 00:00
Orbit: 414 x 429 km, 51.6° (Epoch: 9 February)

Date Brightness Start Highest point End Pass type
(mag) Time Alt. Az. Time Alt. Az. Time Alt. Az.
12 Feb -0.8 06:20:33 10° S 06:22:33 15° SE 06:24:33 10° E visible
14 Feb -2.2 06:21:54 10° SSW 06:24:58 34° SE 06:28:02 10° E visible
15 Feb -1.6 05:36:22 16° S 05:38:01 23° SE 05:40:45 10° E visible
16 Feb -1.0 04:51:33 15° SE 04:51:33 15° SE 04:53:12 10° E visible
16 Feb -3.6 06:24:33 13° WSW 06:27:30 74° SSE 06:30:51 10° ENE visible
17 Feb -3.2 05:39:35 39° SSW 05:40:27 52° SSE 05:43:42 10° ENE visible
18 Feb -1.7 04:54:29 27° ESE 04:54:29 27° ESE 04:56:29 10° E visible
18 Feb -3.7 06:27:29 15° W 06:30:08 64° NNW 06:33:27 10° ENE visible
